Weather in Xilinhot

China     43°57′06″N   116°05′18″E
temp.,
°C
wind,
m/s
gust,
m/s
humid.,
%
clouds,
%
prec.,
mm/h
press.,
hPa
HPBL,
m
13 april, tue
tue1323:00−4nw510380 0.0 1028430
02:00−5wnw48400 0.0 1027228
05:00−6w49390 0.0 1027244
08:00−2w8122287 0.0 1024779
11:00+3w101217100 0.0 10202059
14:00+6w91415100 0.0 10153745
17:00+6nw10152092 0.0 10133472
20:00+2nnw511270 0.0 1017411
14 april, wed
wed1423:000nw11350 0.0 101910
02:00−1ssw33343 0.0 101823
05:00−1sw493786 0.0 1017169
08:00+3wsw7133099 0.0 1015494
11:00+10w912181 0.0 10111598
14:00+13wnw811211 0.0 10072247
17:00+13w69198 0.0 10052411
20:00+10s472589 0.0 1004132
15 april, thu
thu1523:00+10sw81625100 0.0 1002483
02:00+9ssw9182669 0.0 999681
05:00+8sw1120265 0.0 996818
08:00+9wsw12163423 0.0 9941258
11:00+7nw9949100 0.1 9981543
14:00+2nw121452100 0.8 10071840
17:00+4nnw101433100 0.1 10062786
20:00+2nw812277 0.1 10101471
16 april, fri
fri1623:000wnw41032100 0.0 1010556
02:000wnw5834100 0.1 1009734
05:00−1w4772100 0.1 1010298
08:00+1nw79365 0.1 10111120
11:00+3nw91231100 0.3 10113301
14:00+3nnw121222100 0.6 10113690
17:00+3nnw11123076 0.0 10143130
20:00+1nnw914325 0.1 10181324
17 april, sat
sat1723:00−1nw814360 0.0 1021897
02:00−2nw714350 0.0 1022491
05:00
08:00+1wnw812305 0.0 1023675
11:00+6nw911260 0.0 10211641
14:00+11wnw911200 0.0 10162231
17:00+12nw79190 0.0 10152153
20:00+8w33270 0.0 101728